[[{"header":{"parameterUnit":"m.s-1","parameterCategory":1,"la1":30.2991,"la2":30.254,"lo1":-89.0895,"lo2":-89.0444,"dy":0.0017,"dx":0.0017,"nx":28,"ny":28,"refTime":"2023-08-01T21:00:00:Z","depth":0,"parameterNumber":2,"parameterNumberName":"U-component_of_WINDS"},"data":[0,0,0,0,0,0,0,0,0,0,0,0,0,0,0,0,0,0,0,0,0,0,0,0,0,0,0,0,0,0,0,0,0,0,0,0,0,0,0,0,0,0,0,0,0,0,0,0,0,0,0,0,0,0,0,0,0,0,2.8254,2.8254,0,2.8289,2.8289,2.829,2.8202,2.8199,2.8196,2.8193,2.8231,2.8235,2.8238,0,0,0,0,0,0,0,0,0,0,0,0,0,2.8111,2.8114,2.8254,2.8254,2.8255,2.8289,2.8289,2.829,2.8202,2.8199,2.8195,2.8192,2.823,2.8234,2.8238,0,0,0,0,0,0,0,0,0,0,0,0,0,2.8162,2.8115,2.8254,2.8215,2.8212,2.8289,2.8289,2.829,2.8203,2.8199,2.8194,2.8191,2.8228,2.8234,2.8239,2.8355,0,0,2.8255,2.8258,0,0,0,0,0,0,0,0,2.8159,2.8167,2.822,2.8218,2.8214,2.8236,2.8252,2.8312,2.8204,2.8206,2.8193,2.8189,2.8236,2.8241,2.8257,2.8357,2.8359,2.8256,2.8259,2.8261,2.8263,0,0,0,0,0,0,0,2.8156,2.8165,2.8268,2.8221,2.8218,2.8196,2.8198,2.8263,2.8244,2.8206,2.8199,2.8205,2.8234,2.8252,2.8257,2.8359,2.8256,2.8261,2.8264,2.8266,2.8554,2.8558,0,0,0,0,0,0,2.8157,2.8163,2.8266,2.8269,2.8176,2.8202,2.8205,2.8234,2.8243,2.8241,2.8208,2.8201,2.8244,2.8251,2.8258,2.8392,2.8261,2.8266,2.827,2.855,2.8555,2.856,0,0,0,0,0,0,2.8154,2.8167,2.8265,2.8214,2.8225,2.8209,2.8242,2.8237,2.8254,2.8245,2.8241,2.823,2.8241,2.825,2.8331,2.8392,2.8269,2.8274,2.8544,2.8551,2.8557,2.8664,0,0,0,0,0,0,2.8151,2.8167,2.8211,2.8216,2.8228,2.8338,2.8246,2.824,2.8263,2.8254,2.8264,2.8262,2.8239,2.8323,2.8336,2.8398,2.8278,2.8539,2.8547,2.8555,2.8655,2.8673,2.8689,0,0,0,0,0,2.8146,2.8241,2.8214,2.8227,2.8283,2.8342,2.8349,2.832,2.8269,2.8313,2.8306,2.8262,2.8384,2.8332,2.8346,2.841,2.8535,2.8545,2.8555,2.8647,2.867,2.8689,0,0,0,0,0,0,2.8245,2.8241,2.8211,2.831,2.8327,2.8327,2.8382,2.8345,2.8377,2.8367,2.8329,2.8333,2.842,2.8423,2.8366,2.8522,2.8451,2.8464,2.8516,2.8538,2.8555,2.8551,2.8282,0,0,0,0,0,2.8278,2.8326,2.832,2.8408,2.8418,2.8399,2.8423,2.8399,2.8415,2.8422,2.8422,2.844,2.8481,2.851,2.8548,2.8655,2.8655,2.8706,2.8723,2.8737,2.8749,2.8803,2.8825,2.8592,2.8592,2.8592,0,0,2.8348,2.8351,2.8384,2.8428,2.8438,2.8488,2.8405,2.8462,2.8499,2.8431,2.8506,2.8507,2.8524,2.8617,2.8659,2.8623,2.8813,2.875,2.8761,2.8765,2.8815,2.8837,2.8857,2.8599,2.8598,2.8597,0,0,2.8499,2.8508,2.858,2.8592,2.8607,2.8594,2.8611,2.8617,2.8614,2.8689,2.8638,2.8681,2.8755,2.8768,2.8785,2.8939,2.8898,2.8953,2.9042,2.9096,2.9114,2.913,2.9183,2.9202,2.8964,2.8965,2.8965,0,2.8583,2.8656,2.8623,2.8682,2.8702,2.8642,2.8715,2.8728,2.8756,2.8771,2.873,2.882,2.8827,2.8922,2.8959,2.8975,2.8993,2.8951,2.9114,2.913,2.9144,2.9194,2.9214,2.8971,2.897,2.897,2.8969,0,2.8758,2.881,2.8867,2.8893,2.892,2.8986,2.8962,2.8993,2.8966,2.8956,2.9032,2.9039,2.9076,2.9097,2.9073,2.9188,2.9165,2.912,2.9047,2.9173,2.9219,2.9238,2.898,2.8978,2.8976,2.8974,0,0,2.8974,2.8979,2.9001,2.9011,2.9023,2.9062,2.9125,2.916,2.9186,2.9208,2.9258,2.9321,2.9279,2.9298,2.9274,2.9321,2.9439,2.9269,2.9269,2.9299,2.9564,2.9597,2.962,2.9413,2.9416,2.9419,2.9562,0,2.9121,2.9228,2.9198,2.9305,2.9351,2.9293,2.9348,2.9361,2.9353,2.9391,2.9382,2.9426,2.9368,2.9379,2.9423,2.9416,2.9492,2.9405,2.9459,2.9461,2.9454,2.9644,2.9679,2.9814,2.958,2.9583,2.9586,0,2.9308,2.9334,2.9445,2.9447,2.9465,2.9515,2.9543,2.958,2.9594,2.9584,2.9605,2.957,2.9631,2.9559,2.9642,2.9583,2.9603,2.9603,2.9608,2.961,2.953,2.965,2.9856,2.9876,2.9614,2.9612,2.961,0,2.9451,2.9515,2.9588,2.9599,2.9604,2.964,2.9644,2.9652,2.9675,2.97,2.9714,2.9747,2.9765,2.9791,2.9766,2.9716,2.9852,2.9778,2.9845,2.9845,2.9875,2.9873,3.0085,2.9891,2.9891,2.9891,2.989,0,2.9618,2.9688,2.9652,2.9698,2.9773,2.9738,2.9814,2.9811,2.982,2.9863,2.9816,2.9857,2.9823,2.9861,2.9843,2.9912,2.9922,2.9915,2.9909,2.9918,2.9919,2.993,2.9919,2.9896,2.9895,2.9894,2.9893,0,2.9791,2.977,2.9846,2.9844,2.9845,2.99,2.9898,2.9939,2.9927,2.9983,2.9994,2.9975,3.0018,2.9996,3.0041,3.0028,3.0117,3.01,3.0113,3.0107,3.0174,3.0168,3.04,3.0428,3.0218,3.022,3.0221,0,2.9898,2.995,2.9952,2.9977,2.9983,3.0025,3.0047,3.0014,3.0039,3.0056,3.0095,3.0134,3.0162,3.0233,3.0223,3.0257,3.0238,3.0317,3.0243,3.025,3.0237,3.0233,3.0237,3.0332,3.0334,3.0336,3.0338,0,3.009,3.0076,3.0109,3.0138,3.0165,3.0187,3.0205,3.0228,3.0196,3.0226,3.0268,3.029,3.0334,3.0372,3.04,3.0404,3.0366,3.0361,3.0378,3.0388,3.0392,3.0388,3.0151,3.0356,3.0354,3.0353,3.0352,3.0351,3.0231,3.0274,3.0281,3.0319,3.0328,3.0345,3.0383,3.0375,3.041,3.0442,3.0421,3.047,3.048,3.0514,3.0522,3.056,3.0528,3.0553,3.0559,3.0565,3.0573,3.0387,3.0565,3.0564,3.0564,3.0563,3.0563,0,3.0419,3.042,3.0455,3.048,3.051,3.047,3.0487,3.0514,3.0558,3.057,3.0598,3.0645,3.0681,3.0674,3.0707,3.0738,3.0721,3.0748,3.0744,3.0745,3.0601,3.0582,3.0761,3.0761,3.0761,3.076,3.076,3.076,3.052,3.0588,3.0575,3.0647,3.0648,3.0695,3.0708,3.0723,3.0732,3.0786,3.0815,3.081,3.0814,3.0846,3.0877,3.0874,3.0887,3.092,3.091,3.0775,3.0756,3.0737,3.0719,3.0923,3.0924,3.1051,3.1052,3.1053]},{"header":{"parameterUnit":"m.s-1","parameterCategory":1,"la1":30.2991,"la2":30.254,"lo1":-89.0895,"lo2":-89.0444,"dy":0.0017,"dx":0.0017,"nx":28,"ny":28,"refTime":"2023-08-01T21:00:00:Z","depth":0,"parameterNumber":3,"parameterNumberName":"V-component_of_WINDS"},"data":[0,0,0,0,0,0,0,0,0,0,0,0,0,0,0,0,0,0,0,0,0,0,0,0,0,0,0,0,0,0,0,0,0,0,0,0,0,0,0,0,0,0,0,0,0,0,0,0,0,0,0,0,0,0,0,0,0,0,1.2973,1.2972,0,1.2947,1.2946,1.2946,1.2906,1.2905,1.2904,1.2904,1.2877,1.2877,1.2877,0,0,0,0,0,0,0,0,0,0,0,0,0,1.2987,1.2987,1.2973,1.2972,1.2972,1.2947,1.2946,1.2946,1.2906,1.2905,1.2904,1.2903,1.2877,1.2877,1.2877,0,0,0,0,0,0,0,0,0,0,0,0,0,1.2973,1.2987,1.2973,1.2949,1.2947,1.2947,1.2946,1.2946,1.2906,1.2905,1.2904,1.2903,1.2877,1.2877,1.2877,1.2898,0,0,1.2877,1.2877,0,0,0,0,0,0,0,0,1.2974,1.2973,1.2953,1.2951,1.2948,1.2928,1.2942,1.293,1.2906,1.2922,1.2904,1.2902,1.2895,1.2893,1.2891,1.2897,1.2896,1.2877,1.2877,1.2877,1.2877,0,0,0,0,0,0,0,1.2975,1.2974,1.2962,1.2953,1.295,1.294,1.2936,1.2939,1.2915,1.292,1.2917,1.2915,1.2893,1.2891,1.289,1.2895,1.2877,1.2877,1.2877,1.2877,1.2916,1.2917,0,0,0,0,0,0,1.298,1.2975,1.2963,1.2962,1.2959,1.294,1.2937,1.2936,1.2915,1.291,1.2916,1.2913,1.2892,1.289,1.2889,1.2911,1.2877,1.2877,1.2877,1.2915,1.2917,1.2918,0,0,0,0,0,0,1.298,1.2979,1.2964,1.2967,1.2965,1.2941,1.2941,1.2936,1.2933,1.2911,1.2906,1.2918,1.2891,1.2889,1.2896,1.291,1.2877,1.2877,1.2914,1.2916,1.2917,1.2957,0,0,0,0,0,0,1.2981,1.2979,1.2987,1.2968,1.2965,1.2972,1.2941,1.2936,1.2933,1.293,1.2912,1.2908,1.289,1.2896,1.2896,1.2909,1.2877,1.2913,1.2915,1.2917,1.2955,1.296,1.2965,0,0,0,0,0,1.2981,1.3,1.2988,1.2987,1.2974,1.2973,1.2971,1.295,1.2935,1.2942,1.2928,1.2908,1.2909,1.2897,1.2897,1.291,1.2912,1.2914,1.2917,1.2952,1.2959,1.2965,0,0,0,0,0,0,1.3022,1.2997,1.2983,1.2996,1.2987,1.2966,1.2975,1.2958,1.2953,1.295,1.2924,1.292,1.293,1.2921,1.2909,1.2929,1.2907,1.291,1.2934,1.2941,1.2946,1.2947,1.2876,0,0,0,0,0,1.3032,1.3034,1.3012,1.3025,1.3021,1.2999,1.2998,1.2982,1.2972,1.2968,1.2954,1.2944,1.2942,1.2941,1.2938,1.2953,1.2948,1.2962,1.2967,1.2972,1.2974,1.298,1.2986,1.2926,1.2926,1.2926,0,0,1.3054,1.304,1.3043,1.3033,1.3024,1.3025,1.2996,1.2999,1.3,1.2968,1.2973,1.2963,1.295,1.2962,1.2966,1.2954,1.2989,1.2975,1.2978,1.2978,1.2983,1.2989,1.2994,1.2928,1.2927,1.2927,0,0,1.3093,1.3084,1.3093,1.3085,1.3072,1.3057,1.3059,1.3041,1.3033,1.3038,1.3014,1.3014,1.3011,1.3003,1.2998,1.3034,1.3016,1.3034,1.306,1.3067,1.3072,1.3076,1.3088,1.3092,1.3037,1.3037,1.3037,0,1.3122,1.3123,1.3101,1.3105,1.3101,1.3072,1.3081,1.3074,1.3061,1.3058,1.3046,1.3041,1.303,1.3039,1.3047,1.3045,1.3046,1.3036,1.3073,1.3077,1.308,1.3091,1.3096,1.3039,1.3039,1.3038,1.3038,0,1.3158,1.3159,1.3169,1.3156,1.3153,1.316,1.3138,1.3138,1.3123,1.3109,1.3114,1.3101,1.3094,1.3095,1.308,1.3101,1.3094,1.3078,1.3055,1.3088,1.3098,1.3102,1.3042,1.3041,1.3041,1.304,0,0,1.3222,1.3197,1.32,1.3194,1.3177,1.3177,1.3183,1.3176,1.3176,1.3168,1.3171,1.3169,1.3153,1.3148,1.3132,1.3138,1.3166,1.3121,1.312,1.3129,1.3187,1.3199,1.3204,1.3154,1.3155,1.3156,1.3187,0,1.3257,1.3265,1.3245,1.3257,1.3257,1.323,1.3235,1.3225,1.3212,1.3211,1.3197,1.3195,1.3175,1.3172,1.3177,1.3162,1.3177,1.3159,1.3156,1.3156,1.3159,1.3209,1.3222,1.3252,1.3191,1.3192,1.3192,0,1.3299,1.3293,1.3305,1.3287,1.3287,1.3291,1.3283,1.3282,1.327,1.326,1.3254,1.3236,1.3239,1.3218,1.3222,1.321,1.3208,1.32,1.3201,1.3199,1.3176,1.3208,1.3262,1.3266,1.3198,1.3198,1.3198,0,1.3343,1.3338,1.3344,1.334,1.3319,1.3323,1.3314,1.3301,1.3298,1.3291,1.3288,1.3282,1.3278,1.3273,1.3253,1.324,1.3259,1.3237,1.325,1.3251,1.3255,1.3255,1.3309,1.3255,1.3255,1.3255,1.3255,0,1.3384,1.3393,1.3364,1.3368,1.3376,1.3353,1.3362,1.335,1.3339,1.334,1.3316,1.3318,1.3292,1.329,1.3274,1.3279,1.3278,1.327,1.3265,1.3271,1.3272,1.3268,1.3265,1.3256,1.3256,1.3256,1.3256,0,1.3434,1.3415,1.342,1.34,1.3396,1.3403,1.3385,1.3388,1.3374,1.3375,1.3374,1.3352,1.3349,1.3329,1.3321,1.331,1.332,1.3312,1.3324,1.3321,1.3336,1.3334,1.3388,1.3394,1.3338,1.3339,1.3339,0,1.3461,1.3467,1.3447,1.3446,1.3439,1.3438,1.3434,1.3412,1.3409,1.3396,1.34,1.3394,1.3389,1.3385,1.3368,1.3362,1.3352,1.3372,1.3351,1.3357,1.3351,1.3351,1.3351,1.3376,1.3377,1.3377,1.3378,0,1.351,1.35,1.3497,1.349,1.3486,1.348,1.3472,1.3472,1.3447,1.3445,1.3442,1.3437,1.3429,1.3424,1.3415,1.3405,1.3387,1.3384,1.3387,1.3393,1.3399,1.3394,1.3335,1.3383,1.3382,1.3382,1.3382,1.3382,1.3548,1.3552,1.3539,1.3535,1.3527,1.352,1.3521,1.3507,1.3504,1.3495,1.3482,1.348,1.3467,1.3453,1.3445,1.3443,1.3432,1.3436,1.3437,1.3438,1.3441,1.34,1.3441,1.3441,1.3441,1.344,1.344,0,1.3595,1.3585,1.3582,1.3572,1.3569,1.3552,1.3543,1.3541,1.354,1.3529,1.3524,1.352,1.3515,1.3497,1.349,1.3492,1.3483,1.349,1.3489,1.3487,1.3451,1.3449,1.3497,1.3497,1.3497,1.3497,1.3497,1.3497,1.3619,1.3624,1.3613,1.3613,1.3603,1.3601,1.3596,1.359,1.3581,1.3577,1.3573,1.3562,1.3548,1.354,1.3534,1.3529,1.3527,1.3537,1.3529,1.3496,1.349,1.3485,1.3483,1.3537,1.3537,1.3565,1.3565,1.3566]}]]